Estación Meteorológica Peña el Pijo (Robertgarden) [ 09/29/20 12:03:31 CEST ]

Fecha Hora Presion(HPa) Temp (°C) Humedad % Rocio (°C) Viento ( m/s) Direccion Lluvia 1Hora(mm) Lluvia 24H(mm) LLuvia Total(mm)
2020-Feb-01 01:09:18 1013.500 - - - - N     39.88
2020-Feb-01 02:09:55 1013.100 - - - - N     39.88
2020-Feb-01 03:13:54 1012.800 - - - - N     39.88
2020-Feb-01 04:10:28 1012.700 - - - - N     39.88
2020-Feb-01 05:10:00 1012.400 - - - - N     39.88
2020-Feb-01 06:09:36 1012.800 - - - - N     39.88
2020-Feb-01 07:08:44 1013.000 - - - - N     39.88
2020-Feb-01 08:08:48 1013.300 - - - - N     39.88
2020-Feb-01 09:09:09 1013.900 - - - - N     39.88
2020-Feb-01 10:09:35 1014.200 - - - - N     39.88
2020-Feb-01 11:09:12 1015.200 - - - - N     39.88
2020-Feb-01 12:09:06 1015.200 - - - - N     39.88
2020-Feb-01 13:09:09 1015.200 - - - - N     39.88
2020-Feb-01 14:09:15 1015.400 - - - - N     39.88
2020-Feb-01 15:08:52 1015.600 - - - - N     39.88
2020-Feb-01 16:08:54 1015.700 - - - - N     39.88
2020-Feb-01 17:09:34 1016.100 - - - - N     39.88
2020-Feb-01 18:09:19 1015.700 - - - - N     39.88
2020-Feb-01 19:08:58 1016.700 - - - - N     39.88
2020-Feb-01 20:08:57 1017.100 - - - - N     39.88
2020-Feb-01 21:08:55 1017.500 - - - - N     39.88
2020-Feb-01 22:08:46 1018.100 - - - - N     39.88
2020-Feb-01 23:08:52 1018.300 - - - - N     39.88

Temperatura Máxima:    Temperatura Mínima:
Presión Máxima:1018.300 Hpa    Presión Mínima:1012.400 Hpa


Volver